Location: Huisseau
(47.5933°N, 1.4533°E)
Time: 18:41:26
(UTC+00:00)

CENTAUR R/B - Pass Details

Date: 19 November 2025
Orbit: 633 x 1547 km, 63.4° (Epoch: 06 December)

Event Time Altitude Azimuth Distance (km) Brightness Sun altitude
Exits shadow 05:51:37 13° 305° (NW) 3,213 4.6 -12.3°
Maximum altitude 05:58:29 37° 246° (WSW) 2,166 3.9 -11.2°
Drops below altitude 10° 06:06:47 10° 184° (S) 3,718 5.7 -9.9°
Sets 06:10:08 0° 177° (S) 4,694 6.4 -9.3°
